FFL1201 KBFI-KSLC

Flight info

Callsign FFL1201
Flight time 2h 5m
Altitude 41000
Route DCT NORMY DCT MODDA DCT STEVS DCT ALW DCT BYI SKEES6
Aircraft C525/L-SBDFGRWY/S

Departure

Time 2026-04-22 02:00
Airport King County International Airport - Boeing Field (KBFI)

Arrival

Time 2026-04-22 04:06
Airport Salt Lake City International Airport (KSLC)
Time Latitude Longitude Altitude Speed Heading
2026-04-22 01:33 47.53791 -122.30537 22 ft 0 kts 141°
2026-04-22 01:54 47.53788 -122.30535 22 ft 0 kts 206°
2026-04-22 01:54 47.53785 -122.30543 22 ft 1 kts 254°
2026-04-22 01:55 47.53780 -122.30563 22 ft 0 kts 239°
2026-04-22 01:55 47.53780 -122.30564 22 ft 0 kts 239°
2026-04-22 01:55 47.53775 -122.30580 22 ft 2 kts 245°
2026-04-22 01:55 47.53770 -122.30595 22 ft 1 kts 252°
2026-04-22 01:56 47.53770 -122.30620 22 ft 3 kts 295°
2026-04-22 01:56 47.53797 -122.30653 22 ft 6 kts 330°
2026-04-22 01:56 47.53837 -122.30687 22 ft 6 kts 329°
2026-04-22 01:56 47.53870 -122.30714 22 ft 4 kts 330°
2026-04-22 01:57 47.53896 -122.30737 22 ft 3 kts 329°
2026-04-22 01:57 47.53924 -122.30759 22 ft 5 kts 331°
2026-04-22 01:57 47.53969 -122.30798 22 ft 8 kts 330°
2026-04-22 01:57 47.54029 -122.30852 22 ft 10 kts 324°
2026-04-22 01:58 47.54083 -122.30917 22 ft 9 kts 321°
2026-04-22 01:58 47.54091 -122.30994 22 ft 7 kts 241°
2026-04-22 01:58 47.54077 -122.31029 22 ft 1 kts 239°
2026-04-22 01:58 47.54076 -122.31033 22 ft 0 kts 239°
2026-04-22 01:59 47.54070 -122.31047 22 ft 3 kts 238°
2026-04-22 01:59 47.54054 -122.31085 22 ft 5 kts 238°
2026-04-22 01:59 47.54023 -122.31107 22 ft 4 kts 165°
2026-04-22 01:59 47.53984 -122.31080 22 ft 12 kts 151°
2026-04-22 02:00 47.53799 -122.30926 22 ft 56 kts 150°
2026-04-22 02:00 47.53271 -122.30479 62 ft 108 kts 155°
2026-04-22 02:00 47.52618 -122.29980 512 ft 108 kts 155°
2026-04-22 02:00 47.51916 -122.29464 848 ft 122 kts 154°
2026-04-22 02:01 47.51076 -122.28760 1021 ft 155 kts 150°
2026-04-22 02:01 47.50092 -122.27873 1448 ft 171 kts 149°
2026-04-22 02:01 47.49058 -122.26928 1912 ft 184 kts 149°
2026-04-22 02:01 47.47912 -122.25930 2409 ft 195 kts 151°
2026-04-22 02:02 47.46741 -122.24950 3014 ft 199 kts 152°
2026-04-22 02:02 47.45524 -122.23940 3606 ft 202 kts 152°
2026-04-22 02:02 47.44289 -122.22911 4195 ft 206 kts 152°
2026-04-22 02:02 47.43044 -122.21867 4806 ft 207 kts 152°
2026-04-22 02:03 47.41809 -122.20825 5429 ft 207 kts 152°
2026-04-22 02:03 47.40559 -122.19768 6049 ft 207 kts 152°
2026-04-22 02:03 47.39314 -122.18713 6566 ft 211 kts 152°
2026-04-22 02:03 47.38041 -122.17632 7069 ft 215 kts 151°
2026-04-22 02:04 47.35433 -122.15422 8108 ft 220 kts 150°
2026-04-22 02:04 47.34098 -122.14293 8633 ft 222 kts 150°
2026-04-22 02:04 47.32765 -122.13165 9132 ft 223 kts 150°
2026-04-22 02:05 47.31422 -122.12028 9627 ft 225 kts 150°
2026-04-22 02:05 47.30096 -122.10904 10242 ft 220 kts 150°
2026-04-22 02:05 47.28790 -122.09798 10787 ft 217 kts 150°
2026-04-22 02:05 47.27481 -122.08691 11286 ft 217 kts 149°
2026-04-22 02:06 47.26183 -122.07592 11787 ft 215 kts 149°
2026-04-22 02:06 47.24893 -122.06500 12243 ft 216 kts 149°
2026-04-22 02:06 47.23587 -122.05396 12767 ft 215 kts 149°
2026-04-22 02:06 47.22281 -122.04291 13269 ft 216 kts 149°
2026-04-22 02:07 47.20990 -122.03201 13763 ft 216 kts 148°
2026-04-22 02:07 47.19701 -122.02113 14208 ft 216 kts 148°
2026-04-22 02:07 47.18404 -122.01017 14716 ft 215 kts 148°
2026-04-22 02:07 47.17073 -121.99893 14965 ft 226 kts 148°
2026-04-22 02:08 47.15680 -121.98716 15003 ft 243 kts 149°
2026-04-22 02:08 47.14133 -121.97417 14999 ft 260 kts 149°
2026-04-22 02:08 47.12550 -121.96081 15030 ft 270 kts 148°
2026-04-22 02:08 47.10890 -121.94668 15007 ft 280 kts 148°
2026-04-22 02:09 47.09255 -121.93044 15053 ft 283 kts 132°
2026-04-22 02:09 47.08486 -121.90698 16381 ft 237 kts 112°
2026-04-22 02:09 47.07864 -121.88623 17113 ft 219 kts 115°
2026-04-22 02:09 47.07251 -121.86597 17427 ft 219 kts 115°
2026-04-22 02:10 47.06656 -121.84564 17743 ft 219 kts 114°
2026-04-22 02:10 47.06062 -121.82475 18002 ft 221 kts 113°
2026-04-22 02:10 47.05487 -121.80397 18344 ft 220 kts 113°
2026-04-22 02:10 47.04921 -121.78308 18589 ft 222 kts 113°
2026-04-22 02:11 47.04362 -121.76213 18888 ft 221 kts 112°
2026-04-22 02:11 47.03828 -121.74187 19494 ft 206 kts 113°
2026-04-22 02:11 47.03320 -121.72253 19744 ft 205 kts 112°
2026-04-22 02:11 47.02813 -121.70313 20013 ft 205 kts 112°
2026-04-22 02:12 47.02300 -121.68343 20255 ft 206 kts 112°
2026-04-22 02:12 47.01794 -121.66390 20512 ft 207 kts 112°
2026-04-22 02:12 47.01283 -121.64420 20737 ft 207 kts 112°
2026-04-22 02:12 47.00771 -121.62441 21018 ft 206 kts 113°
2026-04-22 02:13 47.00262 -121.60471 21162 ft 210 kts 113°
2026-04-22 02:13 46.99755 -121.58510 21462 ft 207 kts 113°
2026-04-22 02:13 46.99242 -121.56526 21661 ft 208 kts 113°
2026-04-22 02:13 46.98725 -121.54525 21864 ft 210 kts 113°
2026-04-22 02:14 46.98202 -121.52505 22070 ft 212 kts 113°
2026-04-22 02:14 46.97684 -121.50502 22318 ft 211 kts 113°
2026-04-22 02:14 46.97177 -121.48539 22720 ft 203 kts 113°
2026-04-22 02:14 46.96674 -121.46600 22854 ft 208 kts 114°
2026-04-22 02:15 46.96168 -121.44647 23142 ft 205 kts 114°
2026-04-22 02:15 46.95654 -121.42668 23327 ft 207 kts 114°
2026-04-22 02:15 46.95143 -121.40705 23499 ft 209 kts 113°
2026-04-22 02:15 46.94633 -121.38740 23752 ft 208 kts 114°
2026-04-22 02:16 46.94111 -121.36739 23943 ft 209 kts 113°
2026-04-22 02:16 46.93593 -121.34749 24148 ft 211 kts 113°
2026-04-22 02:16 46.93067 -121.32730 24319 ft 214 kts 115°
2026-04-22 02:16 46.92544 -121.30726 24674 ft 208 kts 115°
2026-04-22 02:17 46.92021 -121.28722 24803 ft 213 kts 115°
2026-04-22 02:17 46.91500 -121.26720 25149 ft 207 kts 115°
2026-04-22 02:17 46.90982 -121.24737 25300 ft 211 kts 116°
2026-04-22 02:17 46.90467 -121.22767 25586 ft 207 kts 116°
2026-04-22 02:18 46.89946 -121.20776 25784 ft 210 kts 116°
2026-04-22 02:18 46.89429 -121.18805 26148 ft 207 kts 116°
2026-04-22 02:18 46.88907 -121.16819 26370 ft 211 kts 116°
2026-04-22 02:18 46.88377 -121.14803 26695 ft 212 kts 116°
2026-04-22 02:19 46.87854 -121.12809 27096 ft 212 kts 116°
2026-04-22 02:19 46.87329 -121.10815 27401 ft 213 kts 117°
2026-04-22 02:19 46.86793 -121.08779 27715 ft 215 kts 116°
2026-04-22 02:19 46.86256 -121.06744 28019 ft 217 kts 117°
2026-04-22 02:20 46.85715 -121.04691 28397 ft 216 kts 117°
2026-04-22 02:20 46.85176 -121.02647 28750 ft 216 kts 116°
2026-04-22 02:20 46.84635 -121.00598 29041 ft 217 kts 118°
2026-04-22 02:20 46.84103 -120.98577 29540 ft 211 kts 117°
2026-04-22 02:21 46.83580 -120.96599 29817 ft 213 kts 117°
2026-04-22 02:21 46.83040 -120.94566 30139 ft 213 kts 118°
2026-04-22 02:21 46.82513 -120.92574 30454 ft 213 kts 117°
2026-04-22 02:21 46.81980 -120.90564 30802 ft 211 kts 118°
2026-04-22 02:22 46.81448 -120.88567 31009 ft 214 kts 118°
2026-04-22 02:22 46.80922 -120.86577 31409 ft 210 kts 118°
2026-04-22 02:22 46.80380 -120.84551 31539 ft 216 kts 119°
2026-04-22 02:22 46.79839 -120.82523 31842 ft 216 kts 119°
2026-04-22 02:23 46.79285 -120.80450 32058 ft 219 kts 120°
2026-04-22 02:23 46.78743 -120.78412 32362 ft 219 kts 120°
2026-04-22 02:23 46.78183 -120.76320 32573 ft 221 kts 119°
2026-04-22 02:23 46.77632 -120.74249 32928 ft 218 kts 120°
2026-04-22 02:24 46.77092 -120.72222 33234 ft 216 kts 121°
2026-04-22 02:24 46.76535 -120.70143 33441 ft 218 kts 121°
2026-04-22 02:24 46.75993 -120.68116 33765 ft 216 kts 121°
2026-04-22 02:24 46.75436 -120.66042 33901 ft 220 kts 121°
2026-04-22 02:25 46.74883 -120.63980 34207 ft 217 kts 122°
2026-04-22 02:25 46.74326 -120.61910 34389 ft 219 kts 122°
2026-04-22 02:25 46.73787 -120.59892 34652 ft 216 kts 123°
2026-04-22 02:25 46.73228 -120.57827 34725 ft 220 kts 123°
2026-04-22 02:26 46.72671 -120.55759 34845 ft 222 kts 122°
2026-04-22 02:26 46.72100 -120.53648 34950 ft 225 kts 122°
2026-04-22 02:26 46.71531 -120.51540 35093 ft 225 kts 122°
2026-04-22 02:26 46.70950 -120.49394 35157 ft 228 kts 122°
2026-04-22 02:27 46.70381 -120.47276 35327 ft 226 kts 121°
2026-04-22 02:27 46.69799 -120.45134 35585 ft 232 kts 122°
2026-04-22 02:27 46.69204 -120.42934 35759 ft 231 kts 121°
2026-04-22 02:27 46.68619 -120.40775 35872 ft 234 kts 121°
2026-04-22 02:28 46.68026 -120.38588 36040 ft 233 kts 121°
2026-04-22 02:28 46.67419 -120.36352 36122 ft 237 kts 121°
2026-04-22 02:28 46.66823 -120.34155 36306 ft 236 kts 122°
2026-04-22 02:28 46.66212 -120.31912 36377 ft 240 kts 122°
2026-04-22 02:29 46.65599 -120.29655 36553 ft 239 kts 122°
2026-04-22 02:29 46.64984 -120.27402 36627 ft 242 kts 122°
2026-04-22 02:29 46.64371 -120.25140 36856 ft 238 kts 121°
2026-04-22 02:29 46.63757 -120.22894 36937 ft 240 kts 122°
2026-04-22 02:30 46.63146 -120.20659 37080 ft 240 kts 121°
2026-04-22 02:30 46.62519 -120.18368 37170 ft 242 kts 121°
2026-04-22 02:30 46.61900 -120.16106 37263 ft 244 kts 121°
2026-04-22 02:30 46.61274 -120.13820 37427 ft 242 kts 121°
2026-04-22 02:31 46.60649 -120.11543 37495 ft 246 kts 121°
2026-04-22 02:31 46.60013 -120.09228 37602 ft 246 kts 121°
2026-04-22 02:31 46.59380 -120.06929 37680 ft 248 kts 121°
2026-04-22 02:31 46.58740 -120.04596 37807 ft 248 kts 121°
2026-04-22 02:32 46.58096 -120.02261 37875 ft 251 kts 121°
2026-04-22 02:32 46.57454 -119.99932 37941 ft 253 kts 121°
2026-04-22 02:32 46.56799 -119.97556 38086 ft 252 kts 121°
2026-04-22 02:32 46.56151 -119.95210 38163 ft 253 kts 120°
2026-04-22 02:33 46.55492 -119.92825 38286 ft 253 kts 120°
2026-04-22 02:33 46.54836 -119.90451 38364 ft 254 kts 120°
2026-04-22 02:33 46.54185 -119.88101 38477 ft 255 kts 121°
2026-04-22 02:33 46.53517 -119.85693 38544 ft 257 kts 120°
2026-04-22 02:34 46.52852 -119.83296 38683 ft 256 kts 121°
2026-04-22 02:34 46.52185 -119.80897 38757 ft 258 kts 120°
2026-04-22 02:34 46.51515 -119.78487 38835 ft 260 kts 120°
2026-04-22 02:34 46.50848 -119.76087 38957 ft 259 kts 120°
2026-04-22 02:35 46.50168 -119.73650 39027 ft 261 kts 120°
2026-04-22 02:35 46.49492 -119.71226 39150 ft 261 kts 120°
2026-04-22 02:35 46.48809 -119.68780 39238 ft 262 kts 120°
2026-04-22 02:35 46.48120 -119.66313 39329 ft 263 kts 119°
2026-04-22 02:36 46.47432 -119.63857 39392 ft 265 kts 120°
2026-04-22 02:36 46.46750 -119.61417 39531 ft 264 kts 120°
2026-04-22 02:36 46.46055 -119.58936 39668 ft 263 kts 119°
2026-04-22 02:36 46.45370 -119.56494 39790 ft 261 kts 119°
2026-04-22 02:37 46.44688 -119.54059 39938 ft 259 kts 120°
2026-04-22 02:37 46.44010 -119.51648 40005 ft 260 kts 119°
2026-04-22 02:37 46.43328 -119.49228 40091 ft 260 kts 119°
2026-04-22 02:37 46.42659 -119.46850 40233 ft 258 kts 119°
2026-04-22 02:38 46.41976 -119.44432 40275 ft 260 kts 120°
2026-04-22 02:38 46.41291 -119.42007 40314 ft 261 kts 119°
2026-04-22 02:38 46.40602 -119.39572 40375 ft 262 kts 119°
2026-04-22 02:38 46.39907 -119.37118 40454 ft 263 kts 119°
2026-04-22 02:39 46.39218 -119.34682 40535 ft 263 kts 120°
2026-04-22 02:39 46.38524 -119.32233 40631 ft 262 kts 120°
2026-04-22 02:39 46.37832 -119.29795 40686 ft 263 kts 120°
2026-04-22 02:39 46.37136 -119.27347 40692 ft 266 kts 120°
2026-04-22 02:40 46.36436 -119.24889 40690 ft 269 kts 120°
2026-04-22 02:40 46.35718 -119.22369 40689 ft 272 kts 120°
2026-04-22 02:40 46.34996 -119.19838 40699 ft 275 kts 120°
2026-04-22 02:40 46.34254 -119.17239 40703 ft 278 kts 119°
2026-04-22 02:41 46.33518 -119.14662 40701 ft 282 kts 119°
2026-04-22 02:41 46.32760 -119.12010 40697 ft 286 kts 119°
2026-04-22 02:41 46.32000 -119.09356 40690 ft 289 kts 119°
2026-04-22 02:41 46.31226 -119.06653 40706 ft 292 kts 119°
2026-04-22 02:42 46.30448 -119.03942 40695 ft 296 kts 119°
2026-04-22 02:42 46.29662 -119.01204 40700 ft 299 kts 119°
2026-04-22 02:42 46.28857 -118.98402 40709 ft 302 kts 119°
2026-04-22 02:43 46.27231 -118.92755 40711 ft 309 kts 119°
2026-04-22 02:43 46.25567 -118.86987 40693 ft 315 kts 118°
2026-04-22 02:44 46.23881 -118.81157 40702 ft 320 kts 118°
2026-04-22 02:44 46.22147 -118.75174 40702 ft 324 kts 119°
2026-04-22 02:45 46.20404 -118.69175 40696 ft 329 kts 118°
2026-04-22 02:45 46.18631 -118.63086 40690 ft 332 kts 119°
2026-04-22 02:46 46.16831 -118.56924 40699 ft 335 kts 118°
2026-04-22 02:46 46.15021 -118.50740 40715 ft 337 kts 118°
2026-04-22 02:47 46.13203 -118.44544 40725 ft 340 kts 119°
2026-04-22 02:47 46.11350 -118.38245 40745 ft 341 kts 118°
2026-04-22 02:48 46.09481 -118.31976 40745 ft 341 kts 122°
2026-04-22 02:48 46.08245 -118.29146 40761 ft 335 kts 133°
2026-04-22 02:48 46.06691 -118.26657 40751 ft 333 kts 139°
2026-04-22 02:49 46.03368 -118.21971 40751 ft 334 kts 141°
2026-04-22 02:49 46.00028 -118.17374 40739 ft 335 kts 141°
2026-04-22 02:50 45.96636 -118.12728 40746 ft 337 kts 141°
2026-04-22 02:50 45.93256 -118.08109 40734 ft 338 kts 141°
2026-04-22 02:51 45.89836 -118.03447 40729 ft 339 kts 141°
2026-04-22 02:51 45.86410 -117.98784 40722 ft 340 kts 141°
2026-04-22 02:52 45.82967 -117.94108 40737 ft 342 kts 141°
2026-04-22 02:52 45.79533 -117.89452 40726 ft 343 kts 141°
2026-04-22 02:53 45.76049 -117.84737 40727 ft 344 kts 141°
2026-04-22 02:53 45.72581 -117.80052 40711 ft 344 kts 141°
2026-04-22 02:54 45.69089 -117.75343 40721 ft 345 kts 141°
2026-04-22 02:54 45.65607 -117.70657 40715 ft 346 kts 141°
2026-04-22 02:55 45.62120 -117.65971 40713 ft 346 kts 141°
2026-04-22 02:55 45.58622 -117.61281 40716 ft 346 kts 141°
2026-04-22 02:56 45.55104 -117.56570 40713 ft 347 kts 141°
2026-04-22 02:56 45.51591 -117.51878 40709 ft 347 kts 142°
2026-04-22 02:57 45.48066 -117.47176 40700 ft 348 kts 141°
2026-04-22 02:57 45.44540 -117.42481 40725 ft 348 kts 141°
2026-04-22 02:58 45.41030 -117.37814 40746 ft 347 kts 141°
2026-04-22 02:58 45.37506 -117.33138 40752 ft 347 kts 142°
2026-04-22 02:59 45.33995 -117.28488 40778 ft 347 kts 142°
2026-04-22 02:59 45.30468 -117.23826 40749 ft 347 kts 142°
2026-04-22 03:00 45.26939 -117.19170 40743 ft 347 kts 142°
2026-04-22 03:00 45.23411 -117.14520 40769 ft 345 kts 142°
2026-04-22 03:01 45.19899 -117.09903 40772 ft 346 kts 142°
2026-04-22 03:01 45.16383 -117.05289 40744 ft 347 kts 142°
2026-04-22 03:02 45.12846 -117.00655 40743 ft 346 kts 142°
2026-04-22 03:02 45.09313 -116.96033 40733 ft 347 kts 142°
2026-04-22 03:03 45.05775 -116.91413 40739 ft 347 kts 143°
2026-04-22 03:03 45.02239 -116.86803 40722 ft 347 kts 143°
2026-04-22 03:04 44.98716 -116.82219 40730 ft 346 kts 143°
2026-04-22 03:04 44.95184 -116.77632 40746 ft 346 kts 142°
2026-04-22 03:05 44.91657 -116.73058 40742 ft 345 kts 142°
2026-04-22 03:05 44.88121 -116.68482 40741 ft 345 kts 143°
2026-04-22 03:06 44.84571 -116.63896 40745 ft 346 kts 143°
2026-04-22 03:06 44.81015 -116.59310 40751 ft 348 kts 143°
2026-04-22 03:07 44.77451 -116.54723 40710 ft 349 kts 143°
2026-04-22 03:07 44.73865 -116.50113 40721 ft 349 kts 143°
2026-04-22 03:08 44.70296 -116.45534 40715 ft 350 kts 142°
2026-04-22 03:08 44.66705 -116.40934 40719 ft 350 kts 143°
2026-04-22 03:09 44.63126 -116.36356 40744 ft 349 kts 142°
2026-04-22 03:09 44.59525 -116.31760 40740 ft 349 kts 143°
2026-04-22 03:10 44.55951 -116.27206 40750 ft 349 kts 143°
2026-04-22 03:10 44.52347 -116.22623 40755 ft 350 kts 143°
2026-04-22 03:11 44.48745 -116.18050 40747 ft 350 kts 143°
2026-04-22 03:11 44.45148 -116.13491 40742 ft 350 kts 143°
2026-04-22 03:12 44.41554 -116.08943 40761 ft 349 kts 143°
2026-04-22 03:12 44.36164 -116.02138 40747 ft 349 kts 143°
2026-04-22 03:13 44.32550 -115.97585 40762 ft 349 kts 143°
2026-04-22 03:13 44.28972 -115.93085 40769 ft 349 kts 144°
2026-04-22 03:14 44.25371 -115.88564 40766 ft 350 kts 144°
2026-04-22 03:14 44.21755 -115.84032 40755 ft 349 kts 144°
2026-04-22 03:15 44.18137 -115.79507 40755 ft 349 kts 144°
2026-04-22 03:15 44.14536 -115.75008 40760 ft 349 kts 143°
2026-04-22 03:16 44.10925 -115.70505 40769 ft 348 kts 143°
2026-04-22 03:16 44.07343 -115.66047 40777 ft 348 kts 144°
2026-04-22 03:17 44.03749 -115.61581 40766 ft 347 kts 144°
2026-04-22 03:17 44.00145 -115.57109 40780 ft 346 kts 143°
2026-04-22 03:18 43.96560 -115.52670 40795 ft 346 kts 144°
2026-04-22 03:18 43.92967 -115.48227 40789 ft 347 kts 143°
2026-04-22 03:19 43.89389 -115.43811 40802 ft 347 kts 143°
2026-04-22 03:19 43.85777 -115.39362 40802 ft 348 kts 144°
2026-04-22 03:20 43.82163 -115.34917 40803 ft 349 kts 144°
2026-04-22 03:20 43.78539 -115.30466 40812 ft 350 kts 144°
2026-04-22 03:21 43.74897 -115.26000 40826 ft 350 kts 144°
2026-04-22 03:21 43.71244 -115.21531 40825 ft 351 kts 144°
2026-04-22 03:22 43.67612 -115.17093 40829 ft 352 kts 144°
2026-04-22 03:22 43.63937 -115.12609 40833 ft 352 kts 144°
2026-04-22 03:23 43.60280 -115.08157 40833 ft 353 kts 144°
2026-04-22 03:23 43.56591 -115.03673 40840 ft 353 kts 144°
2026-04-22 03:24 43.52913 -114.99209 40849 ft 354 kts 144°
2026-04-22 03:24 43.49208 -114.94720 40855 ft 354 kts 144°
2026-04-22 03:25 43.45520 -114.90260 40833 ft 355 kts 144°
2026-04-22 03:25 43.41797 -114.85764 40832 ft 356 kts 145°
2026-04-22 03:26 43.38084 -114.81289 40792 ft 357 kts 145°
2026-04-22 03:26 43.34341 -114.76785 40799 ft 357 kts 144°
2026-04-22 03:27 43.30621 -114.72316 40780 ft 358 kts 145°
2026-04-22 03:27 43.26884 -114.67834 40794 ft 357 kts 144°
2026-04-22 03:28 43.23127 -114.63336 40781 ft 357 kts 145°
2026-04-22 03:28 43.19388 -114.58867 40777 ft 357 kts 144°
2026-04-22 03:29 43.15667 -114.54427 40773 ft 357 kts 144°
2026-04-22 03:29 43.11916 -114.49959 40772 ft 357 kts 145°
2026-04-22 03:30 43.08182 -114.45519 40751 ft 357 kts 145°
2026-04-22 03:30 43.04417 -114.41050 40732 ft 357 kts 144°
2026-04-22 03:31 43.00676 -114.36616 40730 ft 357 kts 145°
2026-04-22 03:31 42.96929 -114.32183 40730 ft 356 kts 146°
2026-04-22 03:32 42.93191 -114.27767 40745 ft 355 kts 145°
2026-04-22 03:32 42.89465 -114.23372 40749 ft 354 kts 146°
2026-04-22 03:33 42.85738 -114.18986 40760 ft 355 kts 145°
2026-04-22 03:33 42.82010 -114.14605 40765 ft 356 kts 146°
2026-04-22 03:34 42.78252 -114.10197 40759 ft 356 kts 145°
2026-04-22 03:34 42.74527 -114.05832 40768 ft 357 kts 146°
2026-04-22 03:35 42.70763 -114.01430 40757 ft 357 kts 146°
2026-04-22 03:35 42.66999 -113.97036 40773 ft 357 kts 146°
2026-04-22 03:36 42.63238 -113.92652 40754 ft 358 kts 146°
2026-04-22 03:36 42.59462 -113.88259 40774 ft 359 kts 146°
2026-04-22 03:37 42.55774 -113.83678 40773 ft 362 kts 142°
2026-04-22 03:37 42.52219 -113.78873 40753 ft 363 kts 141°
2026-04-22 03:38 42.50415 -113.76434 40647 ft 367 kts 141°
2026-04-22 03:38 42.48589 -113.73974 39987 ft 374 kts 141°
2026-04-22 03:38 42.46766 -113.71523 39464 ft 375 kts 142°
2026-04-22 03:38 42.44914 -113.69037 38964 ft 375 kts 142°
2026-04-22 03:39 42.43082 -113.66580 38428 ft 374 kts 142°
2026-04-22 03:39 42.41237 -113.64108 37873 ft 366 kts 142°
2026-04-22 03:39 42.39470 -113.61740 37367 ft 358 kts 142°
2026-04-22 03:39 42.37712 -113.59390 36764 ft 351 kts 142°
2026-04-22 03:40 42.35992 -113.57092 36184 ft 345 kts 142°
2026-04-22 03:40 42.34292 -113.54829 35696 ft 343 kts 143°
2026-04-22 03:40 42.32622 -113.52610 35248 ft 341 kts 142°
2026-04-22 03:40 42.30933 -113.50366 34794 ft 339 kts 143°
2026-04-22 03:41 42.29258 -113.48144 34353 ft 338 kts 143°
2026-04-22 03:41 42.27589 -113.45933 33962 ft 337 kts 143°
2026-04-22 03:41 42.25920 -113.43722 33574 ft 338 kts 143°
2026-04-22 03:41 42.24245 -113.41506 33188 ft 338 kts 143°
2026-04-22 03:42 42.22576 -113.39301 32800 ft 339 kts 143°
2026-04-22 03:42 42.20899 -113.37084 32417 ft 340 kts 143°
2026-04-22 03:42 42.19190 -113.34828 32024 ft 340 kts 143°
2026-04-22 03:42 42.17506 -113.32606 31645 ft 342 kts 144°
2026-04-22 03:43 42.15803 -113.30363 31263 ft 344 kts 143°
2026-04-22 03:43 42.14083 -113.28097 30875 ft 346 kts 144°
2026-04-22 03:43 42.12361 -113.25829 30488 ft 348 kts 144°
2026-04-22 03:43 42.10631 -113.23553 30112 ft 348 kts 144°
2026-04-22 03:44 42.08898 -113.21273 29731 ft 349 kts 144°
2026-04-22 03:44 42.07169 -113.19002 29348 ft 349 kts 144°
2026-04-22 03:44 42.05446 -113.16740 28970 ft 349 kts 144°
2026-04-22 03:44 42.03696 -113.14444 28589 ft 350 kts 144°
2026-04-22 03:45 42.01962 -113.12170 28219 ft 350 kts 143°
2026-04-22 03:45 42.00211 -113.09877 27839 ft 349 kts 143°
2026-04-22 03:45 41.98473 -113.07602 27460 ft 349 kts 143°
2026-04-22 03:45 41.96742 -113.05338 27082 ft 349 kts 143°
2026-04-22 03:46 41.94999 -113.03061 26696 ft 349 kts 143°
2026-04-22 03:46 41.93266 -113.00799 26318 ft 349 kts 143°
2026-04-22 03:46 41.91549 -112.98560 25936 ft 349 kts 143°
2026-04-22 03:46 41.89807 -112.96290 25567 ft 348 kts 143°
2026-04-22 03:47 41.88056 -112.94009 25181 ft 348 kts 143°
2026-04-22 03:47 41.86340 -112.91776 24800 ft 349 kts 142°
2026-04-22 03:47 41.84601 -112.89516 24389 ft 349 kts 142°
2026-04-22 03:47 41.82842 -112.87231 23980 ft 348 kts 142°
2026-04-22 03:48 41.81150 -112.85029 23576 ft 337 kts 142°
2026-04-22 03:48 41.79482 -112.82858 23147 ft 328 kts 143°
2026-04-22 03:48 41.77882 -112.80779 22742 ft 320 kts 142°
2026-04-22 03:48 41.76301 -112.78729 22365 ft 314 kts 143°
2026-04-22 03:49 41.74727 -112.76695 21979 ft 312 kts 142°
2026-04-22 03:49 41.73180 -112.74699 21609 ft 313 kts 142°
2026-04-22 03:49 41.71609 -112.72672 21243 ft 315 kts 142°
2026-04-22 03:49 41.70024 -112.70629 20878 ft 316 kts 142°
2026-04-22 03:50 41.68428 -112.68573 20512 ft 317 kts 142°
2026-04-22 03:50 41.66853 -112.66544 20154 ft 318 kts 142°
2026-04-22 03:50 41.65263 -112.64494 19795 ft 317 kts 142°
2026-04-22 03:50 41.63665 -112.62437 19437 ft 317 kts 141°
2026-04-22 03:51 41.62079 -112.60397 19083 ft 316 kts 141°
2026-04-22 03:51 41.60516 -112.58385 18732 ft 313 kts 141°
2026-04-22 03:51 41.58958 -112.56381 18377 ft 309 kts 141°
2026-04-22 03:51 41.57433 -112.54421 18030 ft 306 kts 141°
2026-04-22 03:52 41.55918 -112.52456 17680 ft 303 kts 140°
2026-04-22 03:52 41.54416 -112.50446 17324 ft 302 kts 140°
2026-04-22 03:52 41.52947 -112.48472 16973 ft 301 kts 140°
2026-04-22 03:52 41.51476 -112.46493 16619 ft 300 kts 140°
2026-04-22 03:53 41.50015 -112.44527 16265 ft 299 kts 140°
2026-04-22 03:53 41.48554 -112.42562 15909 ft 298 kts 140°
2026-04-22 03:53 41.47098 -112.40607 15558 ft 298 kts 140°
2026-04-22 03:53 41.45653 -112.38666 15209 ft 298 kts 140°
2026-04-22 03:54 41.44178 -112.36689 14854 ft 298 kts 140°
2026-04-22 03:54 41.42728 -112.34744 14508 ft 298 kts 140°
2026-04-22 03:54 41.41271 -112.32793 14189 ft 297 kts 140°
2026-04-22 03:54 41.39824 -112.30853 13944 ft 294 kts 140°
2026-04-22 03:55 41.38375 -112.28913 13693 ft 292 kts 141°
2026-04-22 03:55 41.36942 -112.26997 13442 ft 291 kts 140°
2026-04-22 03:55 41.35530 -112.25110 13196 ft 290 kts 141°
2026-04-22 03:55 41.34109 -112.23213 12954 ft 289 kts 141°
2026-04-22 03:56 41.32685 -112.21313 12716 ft 289 kts 141°
2026-04-22 03:56 41.31255 -112.19407 12473 ft 289 kts 141°
2026-04-22 03:56 41.29837 -112.17517 12236 ft 288 kts 141°
2026-04-22 03:56 41.28432 -112.15644 11987 ft 284 kts 141°
2026-04-22 03:57 41.27044 -112.13794 11740 ft 280 kts 141°
2026-04-22 03:57 41.25688 -112.11990 11497 ft 277 kts 141°
2026-04-22 03:57 41.24326 -112.10179 11255 ft 276 kts 141°
2026-04-22 03:57 41.22966 -112.08373 11040 ft 275 kts 141°
2026-04-22 03:58 41.21619 -112.06608 10993 ft 269 kts 143°
2026-04-22 03:58 41.20272 -112.04917 10983 ft 264 kts 143°
2026-04-22 03:58 41.18941 -112.03259 10981 ft 260 kts 143°
2026-04-22 03:58 41.17607 -112.01602 10984 ft 257 kts 143°
2026-04-22 03:59 41.16313 -111.99995 10982 ft 255 kts 143°
2026-04-22 03:59 41.15015 -111.98384 10991 ft 253 kts 143°
2026-04-22 03:59 41.13646 -111.96909 10971 ft 245 kts 158°
2026-04-22 03:59 41.12036 -111.96423 11013 ft 236 kts 176°
2026-04-22 04:00 41.10393 -111.96291 10999 ft 235 kts 180°
2026-04-22 04:00 41.08764 -111.96242 10994 ft 235 kts 181°
2026-04-22 04:00 41.07120 -111.96184 10895 ft 238 kts 180°
2026-04-22 04:00 41.05432 -111.96095 10606 ft 248 kts 180°
2026-04-22 04:01 41.03695 -111.96066 10377 ft 248 kts 182°
2026-04-22 04:01 41.01976 -111.96098 10152 ft 246 kts 182°
2026-04-22 04:01 41.00259 -111.96054 9802 ft 248 kts 183°
2026-04-22 04:01 40.98516 -111.96099 9231 ft 256 kts 184°
2026-04-22 04:02 40.96719 -111.96105 8598 ft 263 kts 181°
2026-04-22 04:02 40.94862 -111.96053 7902 ft 271 kts 180°
2026-04-22 04:02 40.92971 -111.96035 7249 ft 275 kts 182°
2026-04-22 04:02 40.91075 -111.96127 6617 ft 266 kts 184°
2026-04-22 04:03 40.89353 -111.96191 6157 ft 225 kts 181°
2026-04-22 04:03 40.87884 -111.96198 5778 ft 200 kts 181°
2026-04-22 04:03 40.86620 -111.96197 5532 ft 162 kts 180°
2026-04-22 04:03 40.85600 -111.96204 5384 ft 130 kts 181°
2026-04-22 04:04 40.84763 -111.96220 5149 ft 113 kts 180°
2026-04-22 04:04 40.84026 -111.96227 4972 ft 98 kts 179°
2026-04-22 04:04 40.83387 -111.96236 4833 ft 89 kts 179°
2026-04-22 04:04 40.82785 -111.96244 4716 ft 84 kts 177°
2026-04-22 04:05 40.82197 -111.96220 4603 ft 84 kts 176°
2026-04-22 04:05 40.81598 -111.96224 4521 ft 87 kts 178°
2026-04-22 04:05 40.80975 -111.96215 4452 ft 90 kts 177°
2026-04-22 04:05 40.80335 -111.96213 4352 ft 91 kts 178°
2026-04-22 04:06 40.79700 -111.96209 4243 ft 91 kts 177°
2026-04-22 04:06 40.79123 -111.96205 4231 ft 69 kts 180°
2026-04-22 04:06 40.78778 -111.96209 4232 ft 21 kts 177°
2026-04-22 04:06 40.78679 -111.96172 4232 ft 13 kts 143°
2026-04-22 04:07 40.78621 -111.96093 4233 ft 11 kts 130°
2026-04-22 04:07 40.78562 -111.96008 4233 ft 13 kts 150°
2026-04-22 04:07 40.78467 -111.96003 4233 ft 14 kts 180°
2026-04-22 04:07 40.78360 -111.96002 4234 ft 15 kts 180°
2026-04-22 04:08 40.78244 -111.96004 4234 ft 17 kts 180°
2026-04-22 04:08 40.78118 -111.96003 4235 ft 18 kts 179°
2026-04-22 04:08 40.77985 -111.96003 4235 ft 19 kts 179°
2026-04-22 04:08 40.77850 -111.96026 4236 ft 19 kts 222°
2026-04-22 04:09 40.77722 -111.96066 4236 ft 19 kts 179°
2026-04-22 04:09 40.77635 -111.96049 4236 ft 5 kts 91°
2026-04-22 04:09 40.77635 -111.96005 4236 ft 4 kts 90°
2026-04-22 04:09 40.77633 -111.95980 4237 ft 1 kts 133°
2026-04-22 04:10 40.77622 -111.95976 4237 ft 2 kts 184°
2026-04-22 04:10 40.77607 -111.95977 4237 ft 0 kts 180°